Location: *
(46.3500°N, 10.9000°E)
Time: 21:49:44
(UTC+00:00)

Explorer 7 - Pass Details

Date: 22 April 2021
Orbit: 484 x 677 km, 50.3° (Epoch: 05 May)

Event Time Altitude Azimuth Distance (km) Brightness Sun altitude
Rises 17:23:28 0° 202° (SSW) 2,573 10.4 7.5°
Reaches altitude 10° 17:26:00 10° 185° (S) 1,718 9.3 7.1°
Maximum altitude 17:28:55 20° 136° (SE) 1,231 8.2 6.6°
Drops below altitude 10° 17:31:57 10° 88° (E) 1,799 8.9 6.1°
Sets 17:34:40 0° 72° (ENE) 2,736 9.8 5.6°
